TimeMST,TemperatureF,Dew PointF,Humidity,Sea Level PressureIn,VisibilityMPH,Wind Direction,Wind SpeedMPH,Gust SpeedMPH,PrecipitationIn,Events,Conditions,WindDirDegrees,DateUTC
12:53 AM,33.1,17.1,52,29.92,10.0,Calm,Calm,-,N/A,,Partly Cloudy,0,2014-02-22 07:53:00
1:53 AM,32.0,21.0,64,29.92,10.0,South,5.8,-,N/A,,Overcast,170,2014-02-22 08:53:00
2:53 AM,30.9,21.9,69,29.89,10.0,ESE,3.5,-,N/A,,Scattered Clouds,120,2014-02-22 09:53:00
3:53 AM,30.0,21.9,72,29.89,10.0,SE,5.8,-,N/A,,Clear,130,2014-02-22 10:53:00
4:53 AM,30.9,19.0,61,29.89,10.0,NNE,3.5,-,N/A,,Clear,20,2014-02-22 11:53:00
5:53 AM,26.1,19.0,75,29.94,10.0,Calm,Calm,-,N/A,,Clear,0,2014-02-22 12:53:00
6:53 AM,26.1,19.9,78,29.95,10.0,South,4.6,-,N/A,,Clear,190,2014-02-22 13:53:00
7:53 AM,30.0,19.9,66,29.96,10.0,SSE,4.6,-,N/A,,Clear,160,2014-02-22 14:53:00
8:53 AM,39.0,21.9,50,29.95,10.0,Calm,Calm,-,N/A,,Clear,0,2014-02-22 15:53:00
9:53 AM,39.0,21.0,49,29.95,10.0,NW,5.8,-,N/A,,Clear,310,2014-02-22 16:53:00
10:53 AM,45.0,19.9,37,29.92,10.0,Calm,Calm,-,N/A,,Clear,0,2014-02-22 17:53:00
11:53 AM,48.0,17.1,29,29.88,10.0,Calm,Calm,-,N/A,,Partly Cloudy,0,2014-02-22 18:53:00
12:53 PM,52.0,17.1,25,29.83,10.0,West,8.1,19.6,N/A,,Mostly Cloudy,260,2014-02-22 19:53:00
1:53 PM,51.1,14.0,23,29.83,10.0,WNW,18.4,25.3,N/A,,Mostly Cloudy,300,2014-02-22 20:53:00
2:53 PM,51.1,12.0,21,29.83,10.0,NW,19.6,-,N/A,,Scattered Clouds,310,2014-02-22 21:53:00
3:53 PM,52.0,12.0,20,29.83,10.0,NW,23.0,27.6,N/A,,Clear,310,2014-02-22 22:53:00
4:53 PM,51.1,12.0,21,29.84,10.0,NW,12.7,20.7,N/A,,Clear,320,2014-02-22 23:53:00
5:53 PM,48.0,14.0,26,29.88,10.0,Calm,Calm,-,N/A,,Partly Cloudy,0,2014-02-23 00:53:00
6:53 PM,41.0,18.0,40,29.92,10.0,SE,4.6,-,N/A,,Clear,140,2014-02-23 01:53:00
7:53 PM,36.0,19.9,52,29.94,10.0,SSE,6.9,-,N/A,,Clear,150,2014-02-23 02:53:00
8:53 PM,33.1,19.0,56,29.95,10.0,SE,9.2,-,N/A,,Clear,140,2014-02-23 03:53:00
9:53 PM,32.0,19.9,61,29.98,10.0,SSE,4.6,-,N/A,,Clear,150,2014-02-23 04:53:00
10:53 PM,30.0,19.9,66,29.99,10.0,SSE,10.4,-,N/A,,Clear,150,2014-02-23 05:53:00
11:53 PM,28.9,19.9,69,29.99,10.0,SSE,9.2,-,N/A,,Clear,150,2014-02-23 06:53:00